Location: Aurora Center
(43.5271°N, 98.5894°W)
Time: 01:00:59
(UTC-05:00)

BlueWalker 3 - Pass Details

Date: 24 June 2024
Orbit: 480 x 492 km, 53.2° (Epoch: 15 July)

Event Time Altitude Azimuth Distance (km) Brightness Sun altitude
Rises 23:45:36 0° 296° (WNW) 2,540 6.4 -18.4°
Reaches altitude 10° 23:48:17 10° 316° (NW) 1,659 5.7 -18.6°
Maximum altitude 23:50:57 18° 1° (N) 1,235 4.7 -18.8°
Drops below altitude 10° 23:53:36 10° 46° (NE) 1,657 4.8 -19.0°
Sets 23:56:17 0° 66° (ENE) 2,536 5.5 -19.2°
